Weather History for Savannah Hunter, GA

Change the Weather History Date:

Tuesday, December 4, 2012

  Actual Average Record
Temperature  
Mean Temperature 63 °F -  
Max Temperature 73 °F 64 °F 80 °F (1998)
Min Temperature 53 °F 43 °F 30 °F (2000)
Degree Days  
Heating Degree Days 2    
Growing Degree Days 13 (Base 50)    
Moisture  
Dew Point 55 °F    
Average Humidity 90    
Maximum Humidity 100    
Minimum Humidity 61    
Precipitation  
Precipitation 0.00 in - - ()
Sea Level Pressure  
Sea Level Pressure 30.27 in    
Wind  
Wind Speed 1 mph (South)    
Max Wind Speed 7 mph    
Max Gust Speed -    
Visibility 6 miles    
Events Fog    
Averages and records for this station are not official NWS values.
T = Trace of Precipitation, MM = Missing Value Source: NWS Daily Summary

Daily Weather History Graph

Daily Weather History Graph

Search for Another Location

Airport:

Trip Planner

Search our weather history database for the weather conditions in past years. The results will help you decide how hot, cold, wet, or windy it might be!

Date:

Astronomy

Dec. 04, 2012 Rise Set
Actual Time 7:10 AM EST 5:19 PM EST
Civil Twilight 6:43 AM EST 5:46 PM EST
Nautical Twilight 6:13 AM EST 6:16 PM EST
Astronomical Twilight 5:43 AM EST 6:46 PM EST
Moon 10:52 PM EST (12/4) 11:15 AM EST (12/4)
Length of Visible Light 11h 03m
Length of Day
10h 09m
Waning Gibbous, 69% of the Moon is Illuminated
Dec 4
Waning Gibbous
Dec 6
Last Quarter
Dec 13
New
Dec 20
First Quarter
Dec 28
Full

Hourly Weather History & Observations

Time (EST) Temp. Dew Point Humidity Pressure Visibility Wind Dir Wind Speed Gust Speed Precip Events Conditions
12:55 AM 55.4 °F 53.6 °F 94% 30.28 in 5.0 mi Calm Calm - N/A   Scattered Clouds
1:19 AM 53.6 °F 53.6 °F 100% 30.26 in 3.0 mi SE 1.2 mph - N/A   Partly Cloudy
1:55 AM 53.6 °F 53.6 °F 100% 30.28 in 0.8 mi Calm Calm - N/A   Partly Cloudy
2:56 AM 53.6 °F 51.8 °F 94% 30.27 in 5.0 mi Calm Calm - N/A   Overcast
3:55 AM 55.4 °F 55.4 °F 100% 30.27 in 10.0 mi Calm Calm - N/A   Overcast
4:55 AM 55.6 °F 54.7 °F 97% 30.27 in 10.0 mi Calm Calm - N/A   Overcast
5:55 AM 56.7 °F 55.9 °F 97% 30.28 in 10.0 mi Calm Calm - N/A   Overcast
6:35 AM 57.2 °F 57.2 °F 100% 30.29 in 10.0 mi Calm Calm - N/A   Overcast
6:55 AM 57.7 °F 56.7 °F 96% 30.30 in 10.0 mi Calm Calm - N/A   Overcast
6:58 AM 57.2 °F 57.2 °F 100% 30.30 in 10.0 mi Calm Calm - N/A   Overcast
7:55 AM 58.1 °F 57.0 °F 96% 30.32 in 10.0 mi West 3.5 mph - N/A   Overcast
8:55 AM 61.0 °F 58.6 °F 92% 30.33 in 10.0 mi Calm Calm - N/A   Overcast
9:55 AM 66.4 °F 61.3 °F 84% 30.35 in 10.0 mi Calm Calm - N/A   Overcast
10:55 AM 71.1 °F 61.2 °F 71% 30.34 in 10.0 mi SSE 5.8 mph - N/A   Overcast
11:55 AM 73.2 °F 59.7 °F 63% 30.31 in 10.0 mi South 5.8 mph - N/A   Mostly Cloudy
12:55 PM 73.8 °F 59.4 °F 61% 30.29 in 10.0 mi SW 6.9 mph - N/A   Overcast
1:55 PM 73.2 °F 59.4 °F 62% 30.27 in 10.0 mi South 6.9 mph - N/A   Overcast
2:55 PM 72.5 °F 58.6 °F 62% 30.26 in 10.0 mi South 5.8 mph - N/A   Overcast
3:55 PM 71.6 °F 58.5 °F 63% 30.25 in 10.0 mi SSE 6.9 mph - N/A   Overcast
4:55 PM 70.0 °F 59.2 °F 68% 30.25 in 10.0 mi SSE 5.8 mph - N/A   Mostly Cloudy
5:55 PM 65.5 °F 59.0 °F 80% 30.25 in 10.0 mi South 3.5 mph - N/A   Clear
6:55 PM 63.5 °F 57.2 °F 80% 30.25 in 10.0 mi South 4.6 mph - N/A   Clear
7:55 PM 60.8 °F 56.5 °F 86% 30.26 in 10.0 mi South 3.5 mph - N/A   Clear
8:55 PM 60.1 °F 56.3 °F 87% 30.26 in 10.0 mi SSE 3.5 mph - N/A   Clear
9:55 PM 56.1 °F 54.5 °F 94% 30.25 in 10.0 mi Calm Calm - N/A   Clear
10:49 PM 55.4 °F 55.4 °F 100% 30.25 in 2.5 mi Calm Calm - N/A   Clear
10:55 PM 55.0 °F 54.1 °F 97% 30.25 in 2.5 mi Calm Calm - N/A   Clear
10:57 PM 55.4 °F 53.6 °F 94% 30.25 in 4.0 mi Calm Calm - N/A   Clear
11:13 PM 55.4 °F 53.6 °F 94% 30.25 in 2.5 mi Calm Calm - N/A   Clear
11:15 PM 55.4 °F 53.6 °F 94% 30.25 in 2.0 mi Calm Calm - N/A   Clear
11:17 PM 55.4 °F 53.6 °F 94% 30.25 in 2.0 mi Calm Calm - N/A   Clear
11:18 PM 55.4 °F 53.6 °F 94% 30.25 in 2.5 mi Calm Calm - N/A   Clear
11:20 PM 55.4 °F 53.6 °F 94% 30.25 in 3.0 mi Calm Calm - N/A   Clear
11:43 PM 53.6 °F 51.8 °F 94% 30.24 in 4.0 mi Calm Calm - N/A   Clear
11:47 PM 53.6 °F 51.8 °F 94% 30.24 in 2.0 mi Calm Calm - N/A   Clear
11:48 PM 53.6 °F 51.8 °F 94% 30.24 in 1.5 mi Calm Calm - N/A   Clear
11:49 PM 53.6 °F 51.8 °F 94% 30.24 in 1.2 mi Calm Calm - N/A   Clear
11:50 PM 53.6 °F 53.6 °F 100% 30.24 in 1.0 mi Calm Calm - N/A   Clear
11:51 PM 53.6 °F 53.6 °F 100% 30.25 in 0.8 mi Calm Calm - N/A   Clear
11:53 PM 53.6 °F 53.6 °F 100% 30.25 in 0.5 mi Calm Calm - N/A Fog Fog
11:55 PM 53.4 °F 52.9 °F 98% 30.24 in 0.5 mi Calm Calm - N/A Fog Fog
11:56 PM 53.6 °F 53.6 °F 100% 30.25 in 0.5 mi Calm Calm - N/A Fog Fog
11:57 PM 53.6 °F 53.6 °F 100% 30.23 in 4.0 mi Calm Calm - N/A   Clear